DW5288 Weather Reports


time (UTC)temp
C
wind
direction
speed
KPH
gust
KPH
rain 1hr
cm
rain 24hr
cm
rain mn
cm
humidity
%
barometer
mb
20260507124804 0 292 14.5 19.3 0.03 0.05 0.05 93 1016.8
20260507124502 0 295 12.9 17.7 0.03 0.05 0.05 93 1016.8
20260507124304 0 286 14.5 19.3 0.03 0.05 0.05 93 1016.8
20260507123804 0 287 14.5 16.1 0.03 0.05 0.05 93 1016.9
20260507123103 0 294 12.9 16.1 0.03 0.05 0.05 93 1016.9
20260507122805 0 296 11.3 16.1 0.00 0.03 0.03 93 1016.9
20260507122307 0 295 11.3 19.3 0.00 0.03 0.03 93 1016.9
20260507121804 0 287 11.3 16.1 0.00 0.03 0.03 93 1016.9
20260507121503 0 287 9.7 14.5 0.00 0.03 0.03 93 1017.0
20260507121304 0 287 9.7 14.5 0.00 0.03 0.03 93 1016.9
20260507120804 0 287 11.3 12.9 0.00 0.03 0.03 93 1017.0
20260507120304 0 286 9.7 12.9 0.00 0.03 0.03 93 1017.1
20260507120110 0 287 9.7 12.9 0.00 0.03 0.03 93 1017.1
20260507115307 0 285 8.0 11.3 0.00 0.03 0.03 93 1017.0
20260507114804 0 294 8.0 11.3 0.00 0.03 0.03 93 1016.9
20260507114503 0 290 6.4 12.9 0.00 0.03 0.03 93 1016.9
20260507113804 0 294 9.7 12.9 0.00 0.03 0.03 93 1016.8
20260507113304 0 289 9.7 11.3 0.00 0.03 0.03 93 1016.8
20260507113102 0 303 8.0 12.9 0.00 0.03 0.03 93 1016.8
20260507112307 0 298 8.0 11.3 0.00 0.03 0.03 92 1016.9
20260507111804 0 289 8.0 11.3 0.00 0.03 0.03 92 1016.8
20260507111503 0 287 6.4 11.3 0.00 0.03 0.03 92 1016.8
20260507111304 0 289 9.7 11.3 0.00 0.03 0.03 92 1016.8
20260507110804 0 289 4.8 9.7 0.00 0.03 0.03 92 1016.8
20260507110304 0 295 8.0 11.3 0.00 0.03 0.03 92 1017.0
20260507110103 0 298 8.0 11.3 0.00 0.03 0.03 92 1017.0
20260507105804 0 294 8.0 11.3 0.00 0.03 0.03 92 1017.1
20260507104805 0 285 9.7 12.9 0.00 0.03 0.03 92 1017.2
20260507104502 0 293 9.7 12.9 0.00 0.03 0.03 92 1017.2
20260507104304 0 290 9.7 12.9 0.00 0.03 0.03 92 1017.2
20260507103809 0 291 11.3 12.9 0.00 0.03 0.03 93 1017.3
20260507103102 0 305 9.7 12.9 0.03 0.03 0.03 92 1017.2
20260507102804 1 298 8.0 12.9 0.03 0.03 0.03 92 1017.2
20260507102306 1 295 9.7 14.5 0.03 0.03 0.03 93 1017.2
20260507101804 1 295 9.7 12.9 0.03 0.03 0.03 93 1017.4
20260507101503 1 289 9.7 12.9 0.03 0.03 0.03 93 1017.4
20260507101304 1 284 9.7 12.9 0.03 0.03 0.03 92 1017.4
20260507100804 1 281 8.0 12.9 0.03 0.03 0.03 93 1017.4
20260507100304 1 280 9.7 16.1 0.03 0.03 0.03 93 1017.4
20260507100103 1 261 11.3 16.1 0.03 0.03 0.03 93 1017.4
20260507095306 1 279 8.0 12.9 0.03 0.03 0.03 93 1017.6
20260507094804 1 272 4.8 11.3 0.03 0.03 0.03 93 1017.7
20260507094503 1 269 8.0 12.9 0.03 0.03 0.03 93 1017.6
20260507094304 1 269 9.7 12.9 0.03 0.03 0.03 93 1017.7
20260507093804 1 288 4.8 11.3 0.03 0.03 0.03 93 1017.9
20260507093304 1 275 11.3 16.1 0.00 0.00 0.00 93 1017.8
20260507093107 1 258 12.9 16.1 0.00 0.00 0.00 93 1017.7
20260507092803 1 262 8.0 12.9 0.00 0.00 0.00 93 1017.8
20260507092306 1 279 4.8 4.8 0.00 0.00 0.00 93 1017.9
20260507091804 1 273 8.0 11.3 0.00 0.00 0.00 93 1017.9
20260507091503 1 269 6.4 17.7 0.00 0.00 0.00 93 1017.9
20260507091304 1 275 8.0 11.3 0.00 0.00 0.00 93 1017.9
20260507090804 1 270 9.7 16.1 0.00 0.00 0.00 93 1018.0
20260507090304 1 269 11.3 14.5 0.00 0.00 0.00 92 1018.1
20260507090108 1 271 9.7 12.9 0.00 0.00 0.00 93 1018.2
20260507085804 1 271 8.0 11.3 0.00 0.00 0.00 92 1018.2
20260507084804 1 276 8.0 9.7 0.00 0.00 0.00 92 1018.3
20260507084502 1 281 6.4 8.0 0.00 0.00 0.00 92 1018.3
20260507084304 1 277 8.0 9.7 0.00 0.00 0.00 92 1018.3
20260507083804 1 280 4.8 9.7 0.00 0.00 0.00 92 1018.4
20260507083304 1 273 8.0 12.9 0.00 0.00 0.00 93 1018.5
20260507083102 1 268 8.0 14.5 0.00 0.00 0.00 93 1018.5
20260507082804 1 273 9.7 12.9 0.00 0.00 0.00 92 1018.5
20260507082306 1 266 9.7 14.5 0.00 0.00 0.00 92 1018.5
20260507081804 1 271 9.7 12.9 0.00 0.00 0.00 92 1018.5
20260507081502 1 272 8.0 14.5 0.00 0.00 0.00 92 1018.6
20260507081304 1 271 9.7 14.5 0.00 0.00 0.00 93 1018.6
20260507080803 1 265 9.7 14.5 0.00 0.00 0.00 93 1018.6
20260507080304 1 265 9.7 14.5 0.00 0.00 0.00 93 1018.7
20260507075307 1 268 9.7 12.9 0.00 0.00 0.00 93 1018.8
20260507074804 1 269 8.0 11.3 0.00 0.00 0.00 93 1018.9
20260507074503 1 264 6.4 11.3 0.00 0.00 0.00 93 1018.8
20260507074304 1 271 8.0 11.3 0.00 0.00 0.00 93 1019.0
20260507073804 1 265 8.0 12.9 0.00 0.00 0.00 92 1019.1
20260507073304 1 269 4.8 8.0 0.00 0.00 0.00 92 1019.0
20260507073110 1 279 4.8 8.0 0.00 0.00 0.00 92 1019.0
20260507072805 1 269 4.8 8.0 0.00 0.00 0.00 92 1019.1
20260507072306 1 280 3.2 8.0 0.00 0.00 0.00 92 1019.2
20260507071804 1 272 8.0 11.3 0.00 0.00 0.00 92 1019.3
20260507071504 1 264 6.4 11.3 0.00 0.00 0.00 92 1019.3
20260507071304 1 268 4.8 8.0 0.00 0.00 0.00 92 1019.3
20260507070304 1 270 4.8 4.8 0.00 0.00 0.00 92 1019.4
20260507070107 1 271 4.8 6.4 0.00 0.00 0.00 92 1019.4
20260507065804 1 275 4.8 4.8 0.00 0.00 0.00 92 1019.5
20260507065306 1 268 4.8 4.8 0.00 0.00 0.00 92 1019.6
20260507064804 1 267 4.8 8.0 0.00 0.00 0.00 92 1019.7
20260507064502 1 258 4.8 8.0 0.00 0.00 0.00 92 1019.7
20260507064304 1 276 3.2 8.0 0.00 0.00 0.00 92 1019.7
20260507063304 1 293 3.2 4.8 0.00 0.00 0.00 92 1019.8
20260507063102 1 289 3.2 4.8 0.00 0.00 0.00 92 1019.7
20260507062804 1 288 3.2 4.8 0.00 0.00 0.00 92 1019.9
20260507062306 1 297 3.2 4.8 0.00 0.00 0.00 92 1019.9
20260507061804 1 288 3.2 4.8 0.00 0.00 0.00 92 1019.7
20260507061503 1 264 1.6 3.2 0.00 0.00 0.00 92 1019.7
20260507061303 1 264 1.6 3.2 0.00 0.00 0.00 92 1019.8
20260507060804 2 264 1.6 3.2 0.00 0.00 0.00 92 1019.9
20260507060304 2 264 1.6 4.8 0.00 0.00 0.00 92 1019.9
20260507055306 2 265 1.6 4.8 0.00 0.00 0.00 92 1020.0
20260507054804 2 265 3.2 4.8 0.00 0.00 0.00 92 1020.1
20260507054502 1 265 3.2 8.0 0.00 0.00 0.00 92 1020.0
20260507054304 2 266 4.8 8.0 0.00 0.00 0.00 92 1020.0
20260507053127 2 243 3.2 6.4 0.00 0.00 0.00 92 1020.0
20260507052804 2 255 3.2 4.8 0.00 0.00 0.00 92 1020.1
20260507052306 2 237 3.2 4.8 0.00 0.00 0.00 92 1020.1
20260507051804 2 254 3.2 4.8 0.00 0.00 0.00 92 1020.1
20260507051503 2 264 4.8 6.4 0.00 0.00 0.00 92 1020.1
20260507050804 2 265 3.2 4.8 0.00 0.00 0.00 92 1020.1
20260507050304 2 257 3.2 4.8 0.00 0.00 0.00 92 1020.0
20260507050103 2 243 3.2 8.0 0.00 0.00 0.00 92 1020.0
20260507045804 2 269 6.4 8.0 0.00 0.00 0.00 92 1020.0
20260507044804 2 241 4.8 4.8 0.00 0.00 0.00 92 1020.1
20260507044502 2 264 4.8 6.4 0.00 0.03 0.00 92 1020.2
20260507044304 2 273 3.2 4.8 0.00 0.00 0.00 92 1020.2
20260507043804 2 272 3.2 4.8 0.00 0.03 0.00 92 1020.2
20260507043303 2 274 4.8 8.0 0.00 0.03 0.00 91 1020.3
20260507043105 2 269 4.8 8.0 0.00 0.03 0.00 91 1020.3
20260507042804 2 271 4.8 4.8 0.00 0.03 0.00 91 1020.3
20260507042306 2 280 3.2 4.8 0.00 0.03 0.00 91 1020.2
20260507041502 2 271 3.2 4.8 0.00 0.03 0.00 91 1020.0
20260507041304 3 293 3.2 3.2 0.00 0.03 0.00 91 1020.1
20260507040804 3 293 3.2 4.8 0.00 0.03 0.00 91 1020.2
20260507040303 3 293 3.2 4.8 0.00 0.03 0.00 91 1020.2
20260507040106 3 287 3.2 6.4 0.00 0.03 0.00 91 1020.2
20260507035804 3 287 4.8 4.8 0.00 0.03 0.00 91 1020.3
20260507035306 3 281 4.8 4.8 0.00 0.03 0.00 91 1020.4
20260507034803 3 281 4.8 9.7 0.00 0.03 0.00 91 1020.3
20260507034502 3 278 4.8 9.7 0.00 0.05 0.00 91 1020.3
20260507034304 3 282 4.8 4.8 0.00 0.05 0.00 91 1020.3
20260507033803 3 275 4.8 11.3 0.00 0.05 0.00 91 1020.2
20260507033304 4 264 8.0 11.3 0.00 0.05 0.00 91 1020.1
20260507033129 3 270 6.4 9.7 0.00 0.05 0.00 91 1020.1
20260507032804 4 269 4.8 8.0 0.00 0.05 0.00 91 1020.0
20260507032306 4 259 4.8 11.3 0.00 0.05 0.00 91 1020.1
20260507031803 4 258 4.8 4.8 0.00 0.05 0.00 91 1020.0
20260507031502 3 268 3.2 6.4 0.00 0.05 0.00 91 1020.0
20260507031303 4 270 4.8 4.8 0.00 0.05 0.00 91 1019.9
20260507030804 4 285 3.2 4.8 0.00 0.05 0.00 91 1019.9
20260507030304 4 285 3.2 4.8 0.00 0.05 0.00 91 1019.9
20260507030111 4 285 3.2 4.8 0.00 0.05 0.00 91 1019.9
20260507025306 4 285 3.2 4.8 0.00 0.05 0.00 91 1019.8
20260507024803 4 291 4.8 4.8 0.00 0.05 0.00 91 1019.8
20260507024502 4 292 4.8 9.7 0.00 0.05 0.00 91 1019.9
20260507024304 4 293 4.8 9.7 0.00 0.05 0.00 91 1019.9
20260507023804 4 298 6.4 11.3 0.00 0.05 0.00 91 1019.8
20260507023304 4 300 4.8 9.7 0.00 0.05 0.00 91 1019.8
20260507023103 4 301 4.8 11.3 0.00 0.05 0.00 91 1019.8
20260507022803 5 294 4.8 11.3 0.00 0.05 0.00 91 1019.7
20260507022306 5 299 4.8 4.8 0.00 0.05 0.00 91 1019.6
20260507021503 5 304 4.8 6.4 0.00 0.05 0.00 91 1019.5
20260507020803 5 309 4.8 4.8 0.00 0.05 0.00 91 1019.2
20260507020104 5 306 4.8 6.4 0.00 0.05 0.00 91 1019.1
20260507015808 6 308 4.8 4.8 0.00 0.05 0.00 91 1018.9
20260507015306 6 303 4.8 4.8 0.00 0.05 0.00 91 1018.9
20260507014805 6 293 3.2 4.8 0.00 0.05 0.00 91 1018.8
20260507014508 6 289 3.2 6.4 0.00 0.05 0.00 91 1018.8
20260507014304 6 294 3.2 4.8 0.00 0.05 0.00 91 1018.8
20260507013805 6 297 3.2 4.8 0.00 0.05 0.00 91 1018.7
20260507013104 6 297 1.6 4.8 0.00 0.05 0.00 91 1018.7
20260507012805 6 297 1.6 3.2 0.00 0.05 0.00 92 1018.6
20260507012306 6 297 3.2 4.8 0.00 0.05 0.00 92 1018.5
20260507011804 6 306 3.2 3.2 0.00 0.05 0.00 92 1018.4
20260507011509 6 306 1.6 6.4 0.00 0.05 0.00 92 1018.4
20260507010805 6 318 3.2 4.8 0.00 0.05 0.00 92 1018.5
20260507010104 6 330 3.2 11.3 0.00 0.05 0.00 92 1018.5
20260507005806 6 315 4.8 11.3 0.00 0.05 0.00 92 1018.7
20260507005306 6 320 6.4 11.3 0.00 0.05 0.00 92 1018.7
20260507004804 6 309 4.8 9.7 0.00 0.05 0.00 92 1018.7
20260507004503 6 313 4.8 8.0 0.00 0.05 0.00 92 1018.7
20260507004305 6 315 4.8 9.7 0.00 0.05 0.00 92 1018.8
20260507003306 6 320 4.8 9.7 0.00 0.05 0.00 92 1018.8
20260507003116 6 324 4.8 12.9 0.00 0.05 0.00 92 1018.8
20260507002805 6 326 8.0 11.3 0.00 0.05 0.00 92 1018.8
20260507002306 6 314 8.0 11.3 0.00 0.05 0.00 92 1018.8
20260507001805 6 321 8.0 11.3 0.00 0.05 0.00 92 1018.8
20260507001503 6 321 6.4 9.7 0.00 0.05 0.00 92 1018.6
20260507000805 6 316 3.2 4.8 0.00 0.05 0.00 92 1018.6
20260507000306 6 334 4.8 8.0 0.00 0.05 0.00 92 1018.7
20260507000105 6 333 4.8 8.0 0.00 0.05 0.00 92 1018.7
20260506235805 6 328 3.2 8.0 0.00 0.05 0.00 92 1018.6
20260506235306 6 345 4.8 8.0 0.00 0.05 0.00 92 1018.6
20260506234804 6 0 3.2 9.7 0.00 0.05 0.00 92 1018.6
20260506234504 6 351 4.8 9.7 0.00 0.05 0.00 92 1018.5
20260506234305 6 295 4.8 8.0 0.00 0.05 0.00 92 1018.5
20260506233805 6 324 4.8 11.3 0.00 0.05 0.00 92 1018.6
20260506233305 6 306 3.2 4.8 0.00 0.05 0.00 92 1018.7
20260506233104 6 296 1.6 11.3 0.00 0.05 0.00 92 1018.7
20260506232804 6 268 4.8 11.3 0.00 0.05 0.00 92 1018.7
20260506232306 6 269 8.0 11.3 0.00 0.05 0.00 92 1018.8
20260506231805 6 277 4.8 9.7 0.00 0.05 0.00 92 1018.8
20260506231604 6 273 4.8 12.9 0.00 0.05 0.00 92 1018.8
20260506231304 6 269 8.0 11.3 0.00 0.05 0.00 92 1018.8
20260506230006 6 262 6.4 11.3 0.00 0.05 0.00 92 1018.7
20260506225805 6 270 6.4 9.7 0.00 0.05 0.00 92 1018.7
20260506225306 6 274 3.2 4.8 0.00 0.05 0.00 92 1018.6
20260506224804 6 306 1.6 4.8 0.00 0.05 0.00 92 1018.5
20260506224610 6 304 1.6 6.4 0.00 0.05 0.00 92 1018.5
20260506224305 6 292 3.2 4.8 0.00 0.05 0.00 92 1018.5
20260506223805 6 79 0.0 0.0 0.00 0.05 0.00 92 1018.4
20260506223305 6 30 0.0 0.0 0.00 0.05 0.00 92 1018.4
20260506223003 6 30 0.0 0.0 0.00 0.05 0.00 92 1018.4
20260506222805 6 30 0.0 0.0 0.00 0.05 0.00 92 1018.4
20260506222306 6 91 0.0 0.0 0.00 0.05 0.00 93 1018.1
20260506221804 6 91 0.0 0.0 0.00 0.05 0.00 93 1018.2
20260506221603 6 91 0.0 3.2 0.00 0.05 0.00 93 1018.2
20260506221305 6 91 0.0 3.2 0.00 0.05 0.00 93 1018.2
20260506220805 6 91 1.6 3.2 0.00 0.05 0.00 93 1018.1
20260506220304 6 6 0.0 3.2 0.00 0.05 0.00 93 1018.1
20260506220004 6 6 0.0 6.4 0.00 0.05 0.00 93 1018.2
20260506215805 6 6 3.2 4.8 0.00 0.05 0.00 93 1018.1
20260506215306 6 44 1.6 4.8 0.00 0.05 0.00 93 1018.2
20260506214804 6 48 3.2 4.8 0.00 0.05 0.00 93 1018.2
20260506214603 6 60 1.6 6.4 0.00 0.05 0.00 93 1018.3
20260506214305 6 90 3.2 4.8 0.00 0.05 0.00 93 1018.2
20260506213805 6 88 4.8 8.0 0.00 0.05 0.00 93 1018.1
20260506213305 6 79 4.8 8.0 0.00 0.05 0.00 94 1018.1
20260506213003 6 90 3.2 14.5 0.00 0.05 0.00 94 1018.1
20260506212805 6 86 8.0 14.5 0.00 0.05 0.00 94 1018.1
20260506212306 6 76 8.0 12.9 0.00 0.05 0.00 94 1018.2
20260506211805 6 81 4.8 12.9 0.00 0.05 0.00 93 1018.2
20260506211603 6 162 6.4 12.9 0.00 0.05 0.00 93 1018.3
20260506211305 6 109 4.8 11.3 0.00 0.05 0.00 94 1018.3
20260506210805 6 101 4.8 9.7 0.00 0.05 0.00 94 1018.3
20260506210305 6 87 4.8 9.7 0.00 0.05 0.00 94 1018.2
20260506210005 6 99 4.8 9.7 0.00 0.05 0.00 94 1018.2
20260506205805 6 66 6.4 11.3 0.00 0.05 0.00 94 1018.2
20260506205306 6 73 3.2 9.7 0.00 0.05 0.00 94 1018.4
20260506204603 6 80 6.4 12.9 0.00 0.05 0.00 94 1018.5
20260506204305 6 118 9.7 12.9 0.00 0.05 0.00 94 1018.5
20260506203805 6 82 6.4 14.5 0.00 0.05 0.00 94 1018.4
20260506203304 6 91 9.7 14.5 0.00 0.05 0.00 94 1018.5
20260506203005 6 100 8.0 14.5 0.00 0.05 0.00 94 1018.5
20260506202804 6 85 6.4 11.3 0.00 0.05 0.00 94 1018.5
20260506202306 6 103 9.7 14.5 0.00 0.05 0.00 94 1018.6
20260506201603 5 94 6.4 11.3 0.00 0.05 0.00 94 1018.6
20260506201305 5 133 8.0 11.3 0.00 0.05 0.00 94 1018.6
20260506200805 5 120 8.0 12.9 0.00 0.05 0.00 94 1018.6
20260506200304 5 110 8.0 11.3 0.00 0.05 0.00 94 1018.6
20260506200003 5 123 4.8 14.5 0.00 0.05 0.00 94 1018.6
20260506195804 5 126 6.4 12.9 0.00 0.05 0.00 94 1018.6
20260506195306 5 138 11.3 14.5 0.00 0.05 0.00 94 1018.6
20260506194602 5 130 11.3 17.7 0.00 0.05 0.00 94 1018.6
20260506194304 5 140 11.3 14.5 0.00 0.05 0.00 94 1018.7
20260506193304 5 118 11.3 16.1 0.00 0.05 0.00 94 1018.5
20260506193003 5 126 11.3 17.7 0.00 0.05 0.00 94 1018.5
20260506192306 5 109 11.3 16.1 0.00 0.05 0.00 94 1018.6
20260506191805 5 113 12.9 16.1 0.00 0.05 0.00 94 1018.6
20260506191603 5 104 11.3 17.7 0.00 0.05 0.00 94 1018.6
20260506190804 5 103 11.3 16.1 0.00 0.05 0.00 94 1018.6
20260506190304 5 113 9.7 14.5 0.00 0.05 0.00 94 1018.7
20260506185805 5 112 9.7 16.1 0.00 0.05 0.00 94 1018.8
20260506185307 5 102 11.3 14.5 0.00 0.05 0.00 94 1018.8
20260506184805 5 101 11.3 16.1 0.00 0.05 0.00 94 1018.8
20260506184504 4 100 11.3 16.1 0.00 0.05 0.00 94 1018.9
20260506184305 5 99 9.7 16.1 0.00 0.05 0.00 94 1018.9
20260506183305 5 111 14.5 19.3 0.00 0.05 0.00 94 1019.0
20260506183104 4 122 11.3 19.3 0.00 0.05 0.00 94 1019.0
20260506182805 5 97 14.5 19.3 0.00 0.05 0.00 94 1019.0
20260506182306 5 108 16.1 20.9 0.00 0.05 0.00 94 1018.9
20260506181805 5 89 9.7 16.1 0.00 0.05 0.00 94 1018.9
20260506181505 4 85 11.3 20.9 0.00 0.05 0.00 95 1019.0
20260506181305 5 88 11.3 19.3 0.00 0.05 0.00 94 1019.0
20260506180804 4 96 14.5 20.9 0.00 0.05 0.00 94 1019.0
20260506180304 4 120 12.9 19.3 0.00 0.05 0.00 94 1019.0
20260506180107 4 107 12.9 19.3 0.00 0.05 0.00 94 1019.0
20260506175805 4 91 14.5 19.3 0.00 0.05 0.00 94 1018.9
20260506175306 4 107 12.9 16.1 0.00 0.05 0.00 94 1018.9
20260506174804 4 94 14.5 19.3 0.00 0.05 0.00 94 1018.7
20260506174502 4 106 11.3 22.5 0.00 0.05 0.00 94 1018.7
20260506173804 4 101 14.5 20.9 0.00 0.05 0.00 94 1018.7
20260506173304 4 102 16.1 20.9 0.00 0.05 0.00 94 1018.7
20260506173130 3 100 14.5 20.9 0.00 0.05 0.00 94 1018.7
20260506172804 4 96 16.1 20.9 0.00 0.05 0.00 95 1018.7
20260506172307 3 100 16.1 20.9 0.00 0.05 0.00 94 1018.7
20260506171805 3 98 14.5 19.3 0.00 0.05 0.00 94 1018.7
20260506171503 3 85 12.9 22.5 0.00 0.05 0.00 94 1018.7
20260506171305 3 91 16.1 20.9 0.00 0.05 0.00 94 1018.7
20260506170804 3 80 16.1 20.9 0.00 0.05 0.00 94 1018.7
20260506170305 3 81 14.5 20.9 0.00 0.05 0.00 94 1018.7
20260506170103 3 84 16.1 22.5 0.00 0.05 0.00 94 1018.7
20260506165804 3 70 17.7 22.5 0.00 0.05 0.00 94 1018.7
20260506165306 3 75 16.1 19.3 0.00 0.05 0.00 94 1018.6
20260506164805 3 66 16.1 19.3 0.00 0.05 0.00 94 1018.6
20260506164504 3 64 12.9 22.5 0.00 0.05 0.00 94 1018.6
20260506164305 3 74 16.1 20.9 0.00 0.05 0.00 94 1018.6
20260506163805 3 63 16.1 20.9 0.00 0.05 0.00 94 1018.5
20260506163305 3 80 12.9 20.9 0.00 0.05 0.00 94 1018.4
20260506163108 2 79 12.9 20.9 0.00 0.05 0.00 94 1018.3
20260506162307 3 61 16.1 20.9 0.00 0.05 0.00 94 1018.2
20260506161804 2 73 14.5 20.9 0.00 0.05 0.00 94 1018.2
20260506161503 2 73 14.5 22.5 0.00 0.05 0.00 94 1018.2
20260506160305 2 56 16.1 20.9 0.00 0.05 0.00 94 1018.1
20260506160114 2 45 12.9 20.9 0.00 0.05 0.00 94 1018.2
20260506155804 2 53 16.1 20.9 0.00 0.05 0.00 94 1018.0
20260506155306 2 64 16.1 19.3 0.00 0.05 0.00 94 1017.9
20260506154503 2 62 14.5 19.3 0.00 0.05 0.00 94 1017.9
20260506154304 2 53 16.1 19.3 0.00 0.05 0.00 94 1017.9
20260506153805 2 53 14.5 19.3 0.00 0.05 0.00 94 1017.8
20260506153104 2 50 14.5 20.9 0.00 0.05 0.00 93 1017.7
20260506152804 2 55 14.5 19.3 0.00 0.05 0.00 93 1017.7
20260506152306 2 59 17.7 20.9 0.00 0.05 0.00 94 1017.8
20260506151804 3 48 14.5 19.3 0.00 0.05 0.00 94 1017.8
20260506151503 2 64 11.3 19.3 0.00 0.05 0.00 94 1017.8
20260506151304 2 54 14.5 19.3 0.00 0.05 0.00 94 1017.8
20260506150804 2 59 14.5 19.3 0.00 0.05 0.00 94 1017.8
20260506150305 2 52 11.3 16.1 0.00 0.05 0.00 94 1017.8
20260506145804 2 54 11.3 16.1 0.00 0.05 0.00 94 1017.8
20260506145306 2 59 12.9 19.3 0.00 0.05 0.00 94 1017.8
20260506144805 2 57 12.9 19.3 0.00 0.05 0.00 94 1017.7
20260506144504 2 60 12.9 16.1 0.00 0.05 0.00 94 1017.7
20260506143804 2 70 11.3 19.3 0.00 0.05 0.00 93 1017.6
20260506143304 2 74 12.9 19.3 0.00 0.05 0.00 93 1017.6
20260506143103 2 71 11.3 17.7 0.00 0.05 0.00 93 1017.6
20260506142804 2 64 12.9 16.1 0.00 0.05 0.00 93 1017.5
20260506141804 2 50 9.7 14.5 0.00 0.05 0.00 93 1017.6
20260506141603 2 67 9.7 14.5 0.00 0.05 0.00 93 1017.5
20260506141304 2 66 8.0 12.9 0.00 0.05 0.00 93 1017.5
20260506140805 2 60 8.0 11.3 0.00 0.05 0.00 93 1017.5
20260506140304 2 65 8.0 12.9 0.00 0.05 0.00 93 1017.5
20260506140003 2 75 6.4 12.9 0.00 0.05 0.00 93 1017.4
20260506135804 2 79 8.0 12.9 0.00 0.05 0.00 93 1017.3
20260506134805 2 73 6.4 12.9 0.00 0.05 0.00 93 1017.3
20260506134603 2 67 8.0 14.5 0.00 0.05 0.00 93 1017.2
20260506134305 2 88 9.7 14.5 0.00 0.05 0.00 93 1017.1
20260506133805 2 88 11.3 16.1 0.00 0.05 0.00 93 1017.0
20260506133306 2 89 9.7 14.5 0.00 0.05 0.00 93 1017.0
20260506133003 2 75 8.0 14.5 0.00 0.05 0.00 93 1017.0
20260506132804 2 86 9.7 14.5 0.00 0.05 0.00 93 1017.0
20260506131804 2 80 8.0 14.5 0.00 0.05 0.00 93 1016.9
20260506131604 2 99 8.0 14.5 0.00 0.05 0.00 93 1016.8
20260506131304 3 93 8.0 12.9 0.00 0.05 0.00 93 1016.7
20260506130304 2 105 8.0 12.9 0.00 0.05 0.00 93 1016.5
20260506130004 2 85 8.0 16.1 0.00 0.05 0.00 93 1016.5
20260506125804 2 87 9.7 16.1 0.00 0.05 0.00 93 1016.5
20260506125306 2 98 8.0 14.5 0.00 0.05 0.00 93 1016.5